Погода в Любимовке

Россия / Костромская область     57°35′33″N   43°34′41″E
темп.,
°C
ветер,
м/с
пор.,
м/с
влажн.,
%
обл.,
%
осадки,
мм/ч
давл.,
гПа
погр.,
м
17 мая, пн
пн1700:00+14зюз23850 0.0 101454
03:00+12юз22900 0.0 101521
06:00+15з12795 0.0 1016120
09:00+21юз125718 0.0 1017651
12:00+24зюз234558 0.0 10171400
15:00+26з12393 0.0 10171426
18:00+24ссв115397 0.0 101638
21:00+18в377387 0.0 1016100
18 мая, вт
вт1800:00+16вюв31080100 0.1 1017195
03:00+14вюв399278 0.6 1017166
06:00+16вюв4118597 0.0 1017309
09:00+22вюв486198 0.0 1017584
12:00+26юв5747100 0.0 10161240
15:00+28юв58426 0.0 10162035
18:00+26вюв5105557 0.0 1015904
21:00+20вюв413758 0.0 1016457
19 мая, ср
ср1900:00+18вюв515795 0.0 1016444
03:00+17вюв414803 0.0 1016353
06:00+18юв514720 0.0 1016445
09:00+24юв510510 0.0 1016635
12:00+27вюв68415 0.0 10151214
15:00+28юв68405 0.0 10151779
18:00+24юв59510 0.0 1015999
21:00+19вюв413630 0.0 1015423
20 мая, чт
чт2000:00+17вюв414720 0.0 1014402
03:00+16юв415760 0.0 1014418
06:00+17юв413740 0.0 1014428
09:00+23вюв59530 0.0 1013892
12:00+26юв6104040 0.0 10122321
15:00+25юв51040100 0.0 10112306
18:00+23юв6115015 0.0 10102098
21:00+19юв513555 0.0 1010808
21 мая, пт
пт2100:00+16ююв4107015 0.0 1009625
03:00+13ююв28915 0.0 1009305
06:00+15ююв488284 0.0 1009398
09:00+18ю576323 0.0 10091204
12:00+21ююз58482 0.2 10091774
15:00+19ююз6962100 0.4 10081476
18:00+15ю51084100 0.6 1009753
21:00+13ю5129197 1.2 1008832